Mitchell, SD

9:59 AM CST on December 06, 2019 (GMT -0600)
Mitchell Municipal

Weather History for KMHE - August, 2019

Change the Weather History Date:

Friday, August 16, 2019

  Actual Average Record
Temperature  
Mean Temperature 72 °F 72 °F  
Max Temperature 85 °F 83 °F 109 °F (1988)
Min Temperature 58 °F 61 °F 38 °F (1897)
Degree Days  
Heating Degree Days 0 0  
Month to date heating degree days 0 0  
Since 1 June heating degree days 16 40  
Since 1 July heating degree days 0 5  
Cooling Degree Days 7 8  
Month to date cooling degree days 137 135  
Year to date cooling degree days 717 653  
Since 1 June cooling degree days 698 613  
Growing Degree Days 20 (Base 50)    
Moisture  
Dew Point 58 °F    
Average Humidity 65    
Maximum Humidity 87    
Minimum Humidity 43    
Precipitation  
Precipitation 0.00 in 0.08 in 1.61 in (1980)
Month to date precipitation 1.56 1.27  
Year to date precipitation 22.48 15.24  
Snow  
Snow 0.00 in - 0.00 in ()
Month to date snowfall 0.0  
Since 1 June snowfall 0.0  
Since 1 July snowfall 0.0  
Snow Depth 0.00 in    
Sea Level Pressure  
Sea Level Pressure 29.86 in    
Wind  
Wind Speed 6 mph (SSW)    
Max Wind Speed 13 mph    
Max Gust Speed 18 mph    
Visibility 10 miles    
Events      
T = Trace of Precipitation, MM = Missing Value Source: NWS Daily Summary

Daily Weather History Graph

Daily Weather History Graph

Search for Another Location

Airport or City:

Astronomy

Aug. 16, 2019 Rise Set
Actual Time 6:37 AM CDT 8:34 PM CDT
Civil Twilight 6:06 AM CDT 9:05 PM CDT
Nautical Twilight 5:28 AM CDT 9:43 PM CDT
Astronomical Twilight 4:46 AM CDT 10:24 PM CDT
Moon 9:33 PM CDT (8/16) 7:30 AM CDT (8/16)
Length of Visible Light 14h 59m
Length of Day
13h 57m
Full, 99% of the Moon is Illuminated
Aug 16
Full
Aug 23
Last Quarter
Aug 30
New
Sep 5
First Quarter
Sep 13
Full

Hourly Weather History & Observations

Time (CDT) Temp. Heat Index Dew Point Humidity Pressure Visibility Wind Dir Wind Speed Gust Speed Precip Events Conditions
12:53 AM 60.1 °F - 55.9 °F 86% 29.89 in 10.0 mi West 4.6 mph - N/A   Clear
1:53 AM 60.1 °F - 55.0 °F 83% 29.89 in 10.0 mi West 4.6 mph - N/A   Clear
2:53 AM 59.0 °F - 55.0 °F 87% 29.90 in 10.0 mi WSW 4.6 mph - N/A   Clear
3:53 AM 57.9 °F - 54.0 °F 87% 29.91 in 10.0 mi WSW 4.6 mph - N/A   Clear
4:53 AM 59.0 °F - 54.0 °F 83% 29.90 in 10.0 mi West 3.5 mph - N/A   Clear
5:53 AM 59.0 °F - 54.0 °F 83% 29.89 in 10.0 mi SW 4.6 mph - N/A   Clear
6:53 AM 60.1 °F - 55.9 °F 86% 29.90 in 10.0 mi Calm Calm - N/A   Clear
7:53 AM 61.0 °F - 55.9 °F 83% 29.91 in 10.0 mi South 4.6 mph - N/A   Clear
8:53 AM 66.0 °F - 57.9 °F 75% 29.91 in 10.0 mi SSW 3.5 mph - N/A   Clear
9:53 AM 71.1 °F - 59.0 °F 66% 29.90 in 10.0 mi South 4.6 mph - N/A   Clear
10:53 AM 75.9 °F - 57.0 °F 52% 29.89 in 10.0 mi South 6.9 mph - N/A   Clear
11:53 AM 79.0 °F - 59.0 °F 50% 29.89 in 10.0 mi SW 5.8 mph - N/A   Clear
12:53 PM 80.1 °F 80.6 °F 57.9 °F 47% 29.88 in 10.0 mi SW 6.9 mph - N/A   Clear
1:53 PM 81.0 °F 81.0 °F 57.0 °F 44% 29.86 in 10.0 mi SSW 4.6 mph - N/A   Clear
2:53 PM 82.9 °F 82.8 °F 59.0 °F 44% 29.85 in 10.0 mi SW 8.1 mph - N/A   Clear
3:53 PM 82.9 °F 82.6 °F 57.9 °F 42% 29.83 in 10.0 mi SW 8.1 mph - N/A   Clear
4:53 PM 84.9 °F 84.8 °F 60.1 °F 43% 29.83 in 10.0 mi WSW 4.6 mph - N/A   Clear
5:53 PM 84.0 °F 83.8 °F 59.0 °F 43% 29.81 in 10.0 mi SSW 6.9 mph - N/A   Clear
6:53 PM 84.0 °F 83.8 °F 59.0 °F 43% 29.80 in 10.0 mi South 4.6 mph - N/A   Clear
7:53 PM 80.1 °F 80.9 °F 60.1 °F 50% 29.79 in 10.0 mi South 5.8 mph - N/A   Clear
8:53 PM 73.0 °F - 62.1 °F 68% 29.79 in 10.0 mi SSE 6.9 mph - N/A   Clear
9:53 PM 72.0 °F - 62.1 °F 71% 29.82 in 10.0 mi South 8.1 mph - N/A   Clear
10:53 PM 73.0 °F - 61.0 °F 66% 29.82 in 10.0 mi South 10.4 mph - N/A   Clear
11:53 PM 72.0 °F - 62.1 °F 71% 29.83 in 10.0 mi South 10.4 mph - N/A   Clear